Theta_e
333 330 334 344 347 346 345 344 344 343 345 346 345 343 343 337 330 327 324 324 326 330 327 323 320 318 316 315 317 323 326 329 329 328 325 323 322 323 324 325 325 327 327
329 328 335 344 346 345 345 344 343 343 345 347 346 345 344 335 328 324 322 322 322 321 319 317 317 318 317 321 322 330 331 330 331 330 329 327 326 325 323 323 323 324 326
328 328 338 344 344 341 340 339 340 341 345 346 346 344 342 331 324 322 320 320 319 318 317 318 320 320 321 329 330 332 332 331 330 331 333 334 333 329 327 326 324 322 323
328 327 338 343 341 339 337 336 337 340 345 346 344 342 337 327 322 320 319 319 318 319 320 321 321 322 325 329 331 331 331 330 331 333 336 336 335 335 333 328 327 324 323
328 328 337 340 338 337 336 335 334 339 343 344 343 339 333 324 321 319 319 319 319 320 321 322 322 323 327 329 329 330 332 333 333 334 334 336 337 337 337 336 330 327 326
327 327 336 339 338 337 335 334 332 331 336 340 338 334 330 323 320 320 320 320 320 320 321 322 322 322 324 326 328 330 331 332 332 333 333 335 337 337 337 337 337 332 328
326 327 336 339 338 337 336 335 333 328 330 333 333 331 327 321 320 320 321 321 321 321 321 320 320 321 321 322 324 326 328 329 330 332 334 326 333 336 336 336 337 337 333
327 328 334 339 339 337 337 337 333 327 330 332 332 330 325 320 320 321 322 322 321 321 320 320 319 319 319 319 319 320 320 320 320 320 323 325 321 333 335 335 335 336 337
327 329 335 339 339 337 337 338 335 327 326 327 328 328 323 320 320 321 322 321 320 320 320 320 320 320 319 319 319 319 319 318 318 318 325 331 327 328 333 334 332 333 334
325 327 332 338 340 339 337 338 336 327 325 323 325 326 322 320 320 321 321 320 320 320 320 319 319 319 319 318 318 318 317 317 317 320 329 332 329 323 326 333 332 333 333
326 325 330 334 339 339 338 338 336 327 324 323 328 327 322 319 320 321 321 320 320 320 320 319 319 318 318 317 317 317 318 321 320 319 325 331 332 330 330 331 333 332 333
331 326 327 330 335 339 338 338 336 327 323 322 325 326 323 319 321 321 321 320 320 320 319 319 318 318 318 318 318 319 329 329 327 327 327 329 331 332 332 332 332 332 331
333 330 328 328 330 334 338 337 336 330 324 321 321 323 321 319 320 320 320 320 320 319 319 319 318 318 320 325 325 326 331 331 332 332 332 333 333 333 334 334 334 333 332
339 335 332 328 328 330 336 336 335 329 326 322 320 320 320 319 320 320 320 320 320 319 319 319 318 323 331 332 333 333 334 333 333 334 334 334 334 334 334 336 336 336 335
338 338 337 333 329 328 332 336 335 331 326 324 321 320 319 320 320 320 320 320 320 319 319 319 319 330 335 335 336 336 334 334 332 330 330 332 334 335 335 336 337 338 338
330 336 340 339 337 330 327 331 334 333 329 327 324 321 320 320 321 321 320 320 320 320 319 319 321 325 333 335 335 334 333 331 330 327 328 332 334 334 336 337 338 339 339
329 334 339 342 343 340 331 326 331 335 335 331 329 327 322 321 321 321 321 321 320 320 320 320 322 328 330 331 332 331 330 328 328 326 330 332 334 336 337 337 337 337 338
332 330 329 333 337 343 341 330 328 332 334 332 330 329 328 325 322 321 321 321 321 321 321 320 322 325 328 329 331 331 329 327 327 325 330 332 330 332 334 335 335 337 338
332 328 327 328 333 341 345 337 330 331 332 332 332 328 328 330 328 323 322 322 322 322 321 321 321 321 324 326 331 332 332 328 325 325 327 331 331 331 333 335 335 336 335
330 330 327 327 330 338 343 341 333 331 332 332 335 332 327 329 334 328 325 324 325 323 323 322 322 321 323 326 334 333 331 327 326 325 328 331 331 331 331 334 333 333 335
321 327 329 326 325 328 333 337 338 335 334 331 330 330 329 332 331 332 331 328 328 326 323 323 323 321 329 336 333 333 330 329 330 328 331 332 332 331 332 333 332 332 335
317 319 324 325 328 327 326 329 336 338 339 339 337 333 331 332 331 324 331 331 332 331 324 325 324 324 328 337 335 333 332 330 332 331 331 332 333 334 330 331 332 332 334
316 318 321 323 323 325 327 330 337 339 342 343 343 338 330 329 331 330 328 328 331 330 329 326 324 326 335 340 333 333 335 334 332 334 333 333 331 332 330 329 332 331 332
316 318 317 318 321 323 327 328 332 330 334 335 342 338 331 329 328 329 331 334 332 337 333 329 325 332 339 341 336 335 334 332 332 334 331 330 331 331 331 331 330 330 331
315 315 319 318 319 320 323 326 333 331 337 335 341 338 335 335 336 337 335 339 339 337 337 338 336 339 341 339 337 334 335 334 332 334 335 332 330 332 332 331 331 330 331
315 315 315 320 320 320 322 331 334 331 335 341 341 340 340 339 338 338 338 339 339 339 342 339 339 340 337 335 332 331 330 335 334 332 333 332 335 335 335 333 331 331 331
Wind_Speed
30 28 29 30 29 29 28 27 24 23 24 24 22 20 16 13 14 17 17 17 17 16 15 13 13 12 12 12 14 15 16 16 16 17 17 16 16 15 14 13 12 10 10
28 29 30 31 31 29 27 25 23 24 25 25 22 18 15 14 16 17 18 17 17 15 14 14 13 13 14 14 14 14 14 14 15 16 15 16 16 15 14 14 12 11 10
28 29 31 31 31 29 26 24 23 23 27 26 22 18 15 15 17 18 18 18 17 16 15 14 14 13 14 13 13 12 12 12 12 12 12 14 14 15 15 14 13 13 12
28 29 31 32 31 29 26 23 22 24 28 25 22 19 17 17 19 19 19 18 17 16 15 14 13 13 13 13 11 11 10 10 10 11 11 11 12 13 15 15 14 13 11
28 29 31 32 31 30 27 25 24 25 27 26 23 20 19 20 21 20 20 19 17 16 15 14 13 12 11 10 9 8 8 8 9 10 9 8 8 9 11 13 14 13 12
28 29 30 31 31 30 28 26 25 26 27 27 24 22 21 21 21 21 20 19 18 16 14 13 12 10 9 7 6 5 5 5 5 5 6 7 5 5 7 9 11 11 12
30 30 31 31 30 29 28 26 25 26 27 27 25 24 24 23 22 21 20 19 18 16 14 12 11 9 8 6 5 3 2 2 4 4 3 5 4 3 4 5 7 8 9
30 30 30 31 30 29 27 25 24 25 27 27 26 25 25 24 24 22 20 19 17 15 14 12 10 8 6 4 3 1 1 3 4 5 5 6 3 1 3 4 5 6 6
29 30 31 31 30 29 27 25 23 25 26 27 27 27 26 25 24 23 20 18 17 15 13 11 9 7 5 3 1 1 3 4 4 5 5 6 4 2 1 3 5 6 5
25 28 30 32 32 31 29 26 23 24 26 27 28 28 27 26 25 23 21 19 16 14 12 10 8 6 4 2 2 2 4 5 5 5 5 7 6 2 2 3 4 6 6
26 27 30 32 34 34 32 28 25 24 26 27 28 28 28 28 26 24 22 19 17 14 12 11 8 7 5 4 3 4 4 5 5 4 6 8 7 5 4 5 7 8 7
26 28 31 32 34 35 34 32 29 29 30 31 31 31 31 30 28 26 22 19 17 15 13 10 8 6 5 5 4 3 1 1 1 1 4 6 7 7 7 8 8 9 8
28 30 32 33 34 35 36 35 34 34 34 34 34 33 32 31 30 27 24 22 20 18 15 12 9 6 6 6 5 3 3 1 1 2 3 5 5 5 5 5 6 7 7
28 29 31 33 35 36 37 37 36 37 37 36 36 35 34 32 30 27 25 23 20 18 15 11 8 6 4 4 4 3 2 2 3 6 6 8 9 8 7 6 6 7 7
28 29 32 33 35 36 38 39 39 39 38 37 36 37 36 35 32 29 27 24 21 18 15 11 8 6 5 5 4 3 3 4 5 6 7 9 9 9 9 8 7 6 7
27 28 31 32 34 33 37 40 41 40 39 38 37 37 36 34 32 30 27 25 23 20 15 12 10 9 8 7 7 6 7 8 7 6 8 9 10 11 10 9 8 8 10
28 29 29 29 33 34 36 37 40 41 41 39 39 38 37 35 33 31 29 26 22 19 15 14 12 10 9 8 9 11 11 11 9 6 4 7 11 11 9 9 7 9 11
33 30 27 29 29 33 34 37 41 42 42 42 42 40 37 35 35 33 31 27 24 22 17 18 15 14 12 10 11 12 13 12 12 6 2 4 11 10 7 5 6 11 13
34 29 28 30 31 30 31 35 41 42 43 39 35 40 36 38 38 35 33 30 26 23 21 21 18 17 15 12 13 14 15 14 14 11 5 1 10 10 8 8 10 12 13
34 33 33 31 30 30 31 36 40 42 42 42 34 32 42 47 42 37 34 31 28 27 24 25 20 21 17 13 12 13 15 14 14 12 6 5 5 13 9 9 12 16 15
35 39 38 36 34 35 36 38 39 39 41 40 46 42 42 40 41 35 34 32 33 30 26 25 20 22 18 12 8 12 13 13 13 8 9 5 7 12 16 17 25 19 17
36 38 44 43 42 39 39 40 40 40 39 39 36 34 36 37 38 40 37 33 35 33 31 32 27 24 22 16 11 9 7 10 2 4 13 14 12 16 23 26 29 26 20
32 36 42 44 46 45 45 43 40 37 34 33 35 33 32 32 34 31 36 38 36 35 34 32 31 31 26 22 15 8 3 4 16 13 15 16 16 22 24 23 25 24 29
19 27 38 44 48 50 49 44 42 39 36 31 31 31 30 32 31 30 32 32 31 28 30 32 27 29 26 20 14 12 14 21 18 22 31 27 23 24 22 24 27 30 27
21 20 23 34 46 49 49 45 43 39 36 31 27 25 27 30 31 28 25 26 25 29 31 27 28 26 27 24 17 21 32 41 39 32 31 33 38 30 24 27 35 32 33
28 26 24 26 31 40 45 42 41 36 33 29 25 26 27 28 28 29 30 31 29 29 30 31 30 26 19 23 25 45 52 41 31 33 35 38 31 37 35 35 37 39 29
Wind_Direction
182 183 181 177 175 174 174 171 169 168 169 164 157 152 152 148 145 142 139 140 142 141 139 134 132 129 119 114 112 107 104 98 92 86 81 78 75 69 63 60 58 57 60
177 180 179 177 177 177 179 178 176 172 171 167 161 161 163 153 149 144 143 145 144 143 140 137 132 124 121 119 118 111 105 98 89 82 79 78 75 71 69 67 63 55 54
179 175 178 176 178 177 178 177 177 175 171 170 169 170 169 158 152 149 147 147 145 143 142 136 131 127 125 122 119 114 102 93 87 84 80 74 72 69 67 64 61 52 48
179 175 178 177 178 178 178 178 176 175 174 174 175 177 171 163 157 153 149 150 148 145 143 139 134 131 129 127 123 112 100 95 88 84 75 74 70 65 62 60 56 51 47
181 177 179 178 179 180 180 180 181 180 180 181 183 181 174 166 161 156 154 154 152 151 148 143 137 133 133 131 122 114 101 90 77 72 69 68 68 61 58 52 50 46 41
180 182 182 183 182 183 184 185 188 187 187 189 187 183 175 170 164 160 159 158 158 156 152 146 139 135 134 131 123 114 95 76 60 59 57 50 48 49 57 49 46 38 36
178 183 185 185 187 188 189 191 194 192 190 191 189 183 177 173 168 166 164 164 162 160 154 151 143 144 142 139 134 121 85 36 12 5 18 20 25 38 36 33 27 23 21
181 184 187 188 190 193 194 197 198 196 193 191 189 185 179 176 172 171 171 170 168 163 160 153 148 147 140 129 118 114 15 348 351 334 333 323 328 343 16 8 3 356 357
184 187 189 189 193 197 199 201 202 201 198 194 191 187 183 181 178 177 178 177 172 169 164 156 156 155 147 134 127 325 332 331 328 322 331 336 328 266 296 330 347 332 321
190 196 195 193 194 197 202 204 207 206 202 199 193 189 187 185 184 184 183 181 179 175 170 167 171 168 166 175 211 267 290 294 302 298 304 317 336 298 252 273 311 307 297
196 200 203 200 199 198 201 204 208 209 205 201 198 195 191 191 188 189 189 186 183 182 182 181 184 184 190 204 236 261 278 284 284 293 298 305 319 326 306 281 297 298 288
201 203 206 206 204 203 203 203 206 206 203 202 201 200 198 195 193 194 193 192 190 191 194 195 197 204 217 233 244 254 224 104 19 348 302 293 293 298 301 293 291 288 281
207 207 209 211 210 207 205 206 204 206 205 202 202 204 202 200 200 197 195 197 197 199 201 204 208 225 248 254 246 192 177 156 35 336 312 300 292 288 285 292 297 298 283
222 219 215 216 216 213 210 209 209 210 208 206 203 204 207 205 206 203 201 204 206 208 210 212 222 241 230 204 191 187 198 275 333 330 321 302 295 291 284 282 296 320 307
229 229 226 222 220 218 215 214 213 213 213 212 209 208 209 209 209 208 207 207 213 216 220 224 229 236 233 229 227 228 265 298 323 334 337 317 305 293 286 273 274 291 312
235 233 230 229 232 226 221 220 220 218 216 215 215 216 216 215 214 217 214 215 216 221 227 233 236 237 245 260 270 279 282 287 302 329 332 323 307 294 283 278 281 292 298
233 223 226 229 233 232 229 227 226 223 221 220 219 221 220 219 221 223 222 225 223 234 231 244 250 244 251 262 276 283 287 286 290 324 325 343 343 330 299 278 283 294 292
234 229 228 228 228 232 228 228 228 226 225 225 224 226 227 226 226 227 229 228 233 231 232 241 243 251 252 266 280 289 290 287 290 295 276 34 22 15 356 330 324 318 286
233 225 229 228 227 226 228 228 230 230 229 230 234 238 237 239 232 228 232 232 232 235 239 244 247 250 258 266 276 285 293 291 292 286 247 115 18 7 335 330 306 317 304
235 231 230 224 220 220 223 226 230 232 232 225 222 224 212 241 237 231 232 237 236 234 236 242 248 257 259 267 276 289 300 303 301 283 238 245 335 2 351 339 335 330 314
244 239 233 231 228 226 224 226 231 235 237 232 233 232 230 227 238 240 240 239 243 239 234 239 241 256 250 258 268 292 315 303 308 276 197 268 294 337 358 355 353 340 316
241 241 236 235 235 232 231 234 234 238 240 242 238 234 235 226 222 231 240 248 248 242 241 239 239 242 246 239 246 298 313 311 173 9 238 304 299 293 329 336 342 339 312
242 236 235 233 232 234 235 234 233 234 236 237 234 230 227 227 223 225 226 236 247 252 246 244 238 234 234 240 235 224 217 274 325 323 308 295 310 325 315 306 330 329 323
273 254 238 233 233 234 235 235 234 236 231 233 234 229 225 222 225 229 233 237 248 250 249 242 241 240 227 233 227 252 255 284 292 299 296 296 298 297 303 317 331 323 323
271 269 252 237 233 234 234 233 231 231 234 233 229 226 222 226 228 231 232 239 244 245 246 245 237 232 227 226 239 272 290 287 287 275 278 281 290 282 296 305 313 317 311
270 265 257 244 233 232 234 231 230 233 232 227 223 215 217 222 228 235 238 247 251 251 247 244 243 243 238 265 256 278 275 275 276 276 273 278 279 285 291 302 310 305 298